[討論] 大家開車會試著跑贏 Google Map 嗎?

看板 Car
作者
時間
留言 134則留言,86人參與討論
推噓 48  ( 62推 14噓 58→ )
Google Map 的預估能力很準大家都知道,但偶有出包的時候 昨天我取完餐回家,本來有條路 Google 報26分鐘 但我怎麼想都不對,因為剛經過那條路的時候回程很塞 我就走了另外一邊,結果省了六七分鐘 (無飆車順順開) 不知道大家開車的時候有沒有一種衝動想要打敗 Google Map 以不飆車不違反交通規則的狀況下,我九成五的機會是輸的 偶而贏了 google map 就會有種得意的小確幸 XD --
※ 發信站: 批踢踢實業坊(ptt.cc), 來自: 24.80.49.242 (加拿大) ※ 文章網址: https://www.ptt.cc/bbs/car/M.1619054092.A.0BA.html
1Fblackmamba24: ........ 04/22 09:16
2FJEON: 跑贏基本的吧,就像某些油電車會整天比省油一樣 04/22 09:19
我在加拿大很難跑贏耶
3Fcatson: 贏了有獎金嗎? 04/22 09:19
4FFiesta5566: 如果知道尖峰交管的方式,很容易就比GOOGLE正確了 04/22 09:23
5FFiesta5566: 交管的過程完全欺騙了google的演算法 04/22 09:23
6Fzippy: 可憐....生活已經了無生趣到這種地步 04/22 09:24
每天都在家上班,偶而出去的確需要找些樂子,或是發發廢文等
7Flibramog: 我從來不相信他啊...... 04/22 09:27
8Flp123gbaj: @@ 04/22 09:30
9FBITMajo: 你可以在GoogleMap把交通工具改成走路啊 04/22 09:31
10Fforeverwhat: 小確幸? 04/22 09:40
11FCMLeeptt: 可憐哪… 04/22 09:42
12Fyytseng: 小確幸,可憐吶...不塞車從沒跑輸過Google Map 04/22 09:54
13Feulbos: 一般照速限開頂多一樣吧 04/22 09:56
14Fbennybennyb: 一般車子都可以跑贏吧,除非你開馬自達 04/22 09:57
15Fnoname78531: 開愛上課的廠牌永遠贏不了啦 04/22 09:59
16Falwang: 我好像都沒贏過 每次都要拜託google map幫我延時 04/22 10:03
17Fyytseng: 輸贏在於你右腳願不願意踩...有些人喜歡用滑的必輸 04/22 10:05
18Fyytseng: 高速公路只要一直開在速限,100公里比google快5分鐘 04/22 10:06
我發現只要你衝幾個黃燈就比較容易贏了、
19Fkobe760903: google市區塞車就不太準了 等未來數據多一點看看 04/22 10:08
20FGsm30768: 我都投10塊加時間 04/22 10:08
21Fkakadog: 沒這麼無聊 04/22 10:18
22Flanlanlu5566: 我都用土靈珠 給你參考 04/22 10:22
23FJEON: 土靈珠.....乾這個年輕人聽不懂吧 好懷念 04/22 10:25
還沒拿到土靈珠用引路蜂好不好
24Fz2608002: 正常開不休息都可以 04/22 10:26
25Fkirax20a: 正常開都小贏居多 04/22 10:27
26Fjason0330: 高速公路車少的時候很容易跑贏 04/22 10:28
27Felvis30901: 我每次都跑輸...是不是太容易遇到塞車了 04/22 10:49
28Felvis30901: 每次一開始跑贏,前面一坨車就還回去了 04/22 10:50
29FEFERO: 我幾乎都小輸 04/22 10:52
30Fgodchildtw: 跑贏又沒獎品獎金獎盃 04/22 10:53
生活中的樂趣一定要牽扯上金錢或是獎勵嗎?
31Fjump693: 土城上64.65都會塞 很難 04/22 10:57
32Fwalter0914: 會輸是因為沒有通過檢查點加時 04/22 11:00
33Fniko0202: 跑贏是基本, 塞車時段 時間變兩倍都不多 04/22 11:01
34FVANDAS: 半夜開國三我不管開多快都沒辦法快幾分鐘 很氣 04/22 11:08
35FSaiMenZ: ....... 04/22 11:13
36Fcheetahspeed: 照著開都快十幾分鐘 04/22 11:33
37Fpaulyang1005: google高速很準,幾乎都差不多時間 04/22 11:35
38Fe34l892: 請問贏了googlemap有什麼獎勵嗎 04/22 11:42
39Flwamp: 市區google map真的很爛 常常繞遠路 高速公路塞車 04/22 11:43
40Flwamp: 說有更快路線 結果交流道上上下下反而塞在市區裡 04/22 11:43
41Fvigorhsieh: 會,但總是跑不贏 04/22 11:46
42Fmepass: 開車很難吧 騎機車比較有機會 04/22 11:46
43Fz85917131: 習大大笑而不語 04/22 11:46
44Fwisdom: 我每天通勤上班,google預計15分鐘的路程都可以縮短 04/22 11:53
45Fwisdom: 2-3分鐘到。通勤路線自己知道哪些小巷可以鑽,或是 04/22 11:53
46Fwisdom: 維持怎樣的節奏可以少等紅燈,提前轉彎閃紅燈之類的 04/22 11:53
47Fwisdom: 另外從北部回家,google永遠叫我下龍井交流道,但實 04/22 11:53
48Fwisdom: 際上先下沙鹿再鑽小路回我家,雖然市區里程長一些( 04/22 11:53
49Fwisdom: 高速里程短一點),但幾乎沒有紅綠燈,最差都是跟 04/22 11:53
50Fwisdom: google報的時間到達,正常都可以再提早,而跟著 04/22 11:54
51Fwisdom: google的路線下龍井交流道,最好的結果也是跟它預計 04/22 11:54
52Fwisdom: 的時間一樣,通常都還要晚一些。google判斷路況是有 04/22 11:54
53Fwisdom: 盲點的,譬如下龍井往市區方向,大上坡頂的路口,左 04/22 11:54
54Fwisdom: 轉車很多排很長,但直行車相對少多,車流也順暢很 04/22 11:54
55Fwisdom: 多。但google判斷這段的車流速度無法分辨,估計是用 04/22 11:54
56Fwisdom: 平均速度來估。所以我要左轉,會在車陣裡卡很久,但 04/22 11:54
57Fwisdom: google把直行順暢的車流速度平均進來,就會高估我的 04/22 11:54
58Fwisdom: 速度。所以除非沒遇到塞車,不然我幾乎都是比預估時 04/22 11:54
59Fwisdom: 間久的。總之,google預估到達時間的參考價值很高, 04/22 11:54
60Fwisdom: 這不可否認,但自己開習慣的路線,比google快是應該 04/22 11:54
61Fwisdom: 的。 04/22 11:54
62Flittlebonnie: 沒輸過Google Map 倒是蘋果的地圖你跑快幾次以後 04/22 11:59
63Flittlebonnie: 感覺會調降你的時間 超難跑贏 你可以挑戰看看 04/22 11:59
64Fyeeouo: 不忍噓 04/22 12:08
65FMensa0801: 每次照google map路線開都提早抵達 04/22 12:18
66FFreedomKoala: 很可愛啊 為生活找樂子 04/22 12:29
謝謝你,我也覺得這很有趣,還會嘗試不同路線打敗Google Maps ※ 編輯: naticom (24.80.49.242 加拿大), 04/22/2021 12:39:27
67Fgeniept: 為生活找點樂趣的同時也請要小心道路安全喔,不要 04/22 12:47
68Fgeniept: 為了那幾分鐘的速度賠上了安全到家的優雅 04/22 12:47
前提說到不飆車不違反交通規則
69Fc753968412: 我也都這樣欸 還會暗自幹譙說為什麼我都超速十公里 04/22 12:56
70Fc753968412: 了 預定時間還是一模一樣 04/22 12:56
71Fcuteneo: 跑長途跑贏的話基本的 04/22 12:56
72Flll156k1529: 正統飆仔當然要贏啊 04/22 13:09
※ 編輯: naticom (24.80.49.242 加拿大), 04/22/2021 13:11:16
73Fauir: 天網笑而不語 04/22 13:11
74Ficeking: google map根本常常走一些不能走會違規的路啊,最方 04/22 13:11
75Ficeking: 便也最糞的導航. 方便查找資訊及使用,但路徑最糞. 04/22 13:11
76Fdoshajou: 不會,正常一定都比較快 04/22 13:13
77Fcities516: 我用Apple Map 凌晨沒輸過 04/22 13:18
78Fl6333133: 都快10分鐘 04/22 13:36
79Fandy87878744: https://i.imgur.com/G7Mj4Ep.jpg 04/22 14:32
80Fandy87878744: 我開馬自達,從來沒贏過 04/22 14:33
81Fmp60707: ..... 吃飽太閒 本來就參考用 04/22 14:37
82Freallocust: 有時候google導航前面大路口右轉,要等紅燈,在前一 04/22 14:56
83Freallocust: 個小路口右轉小巷子再出去, 常會快2分鐘左右,不過這 04/22 14:56
84Freallocust: 是路熟老司機專屬 04/22 14:56
85FJER2725: 我只用here wego,抵達時間我都參考用 04/22 15:19
86Fjei01: 跑山路可以贏很多 04/22 16:07
87Foh753951: 我都快到讓google跟不上 04/22 16:42
88FTammus12345: 從來沒贏過google 04/22 17:32
89Fgarra: 山路一定贏的啊 除非塞車 GOOGLE MAP山路算40km/hr? 04/22 17:51
90FCHRISBEE: 其實蠻準的 04/22 18:46
91Fai031221: 你是不是太無聊XD 04/22 18:51
92Fai031221: 通常都會比較快吧 04/22 18:52
93Fa9224359: 換亞x電信就可以了 04/22 19:30
94FApnalaD: 我平均每小時可以快5分鐘 應該大家也一樣ㄅ 04/22 20:37
95Fkentano: google算的是眾人平均用時 踩一下應該就會贏 04/22 20:52
96Familkamilk: 試過導航抓兩小時的台中,自己開一小時半就到了 04/22 21:42
97Feulbos: 山路給的預估時間大概就速限+10跑出來的 04/22 22:41
98Feulbos: 遇到慢車但又不想雙黃線超車,就會輸Google Map了 04/22 22:42
99FFSWIN1278: 基本上很簡單…例如我去好市多,都會顯示15分鐘以上 04/22 22:55
100FFSWIN1278: ,但明明只要10分鐘,而且是包含停好車了,重點我的 04/22 22:55
101FFSWIN1278: 路線是和他一模一樣,也沒小路能走 04/22 22:55
102FFSWIN1278: https://i.imgur.com/so2XLj1.jpg 04/22 22:56
103FFSWIN1278: 內壢交流道往嘉義交流道,國1轉國3顯示比國1直走還 04/22 23:05
104FFSWIN1278: 慢 https://i.imgur.com/gOn90Jx.jpg 04/22 23:05
105FFSWIN1278: 事實上,國1轉國3再轉國1,往往比較快,沒車順順開 04/22 23:07
106FFSWIN1278: 約1小時50分就能到達,我最快是1小時30分 04/22 23:07
107Fa0925846: 騎車基本上穩贏 04/23 00:14
108Fcrazyboy1005: 沒輸過 04/23 01:10
109Fzzz41432: 有 一定跑贏 04/23 01:25
110Fqwe172839: 我開馬自達 google map都放棄治療 04/23 03:01
111Fbboywhite: 有一次google導航叫我下中和 交流道,友人叫我從安 04/23 04:33
112Fbboywhite: 坑下比較快,真的快了不少!大塞的時候googlemap的 04/23 04:33
113Fbboywhite: 預估時間不是很準 04/23 04:33
114Fbboywhite: 導航叫我走中山北、承德路、重慶北、延平北的路線 04/23 04:41
115Fbboywhite: 我一律繞路走環河北 快多了 04/23 04:41
116Fqwe172839: 那繞林森北會不會大遲到 04/23 05:14
117Fzas0159: 哈哈哈哈哈我也會這樣 而且跑贏會有一種賺到的港覺 04/23 06:54
118Fwjw1128: 無聊 04/23 08:08
119Ftrickart: 你也開太慢…沒跑輸過 看到估狗時間都會自動在心裡 04/23 09:40
120Ftrickart: 減五分鐘 04/23 09:40
121Flucky4283: 無聊 04/23 13:04
122Fredgod: 8+9? 04/23 15:37
123Fwsxe2007: 沒贏過 04/23 16:05
124Fganninian: 阿不就好棒棒 04/23 18:33
125Ffacebookig: 大數據其實算蠻準的 04/23 21:43
126Fzaqwsxcde: 不是隨便都跑的贏嗎 04/23 22:17
127Fgrace0523: ... 04/24 01:49
128Fthe1012: 我開遊覽車用Google map,尖峰時段顯示一個小時實 04/24 10:14
129Fthe1012: 跑四十分鐘給你參考 04/24 10:14
130Ftokei: +1 而且沒必要噓吧 04/24 10:16
131Flizardc1: 車程一小時快五分鐘是基本 04/24 12:28
132Flizardc1: 台中新竹估狗要40分 實際不用35就到了 04/24 12:29
133FBrinkley: 我開馬自達,至少都比google map 慢10分鐘以上QQ 04/24 13:12
134Fgogogo499: 推土靈珠哈哈哈 04/25 01:58

car 最新熱門文章

53 [菜單] 2021 all new sentra
77 car 2021-05-18 19:26
31 [問題] 非柏油路不能檢舉?
72 car 2021-05-17 15:59
30 打蠟技巧請益
66 car 2021-05-17 11:12
17 [菜單] KIA New Stonic 1.4
36 car 2021-05-16 22:13
32 [問題] 寶獅2008全省缺車?
101 car 2021-05-16 22:10
23 [問題] Toyota CS 車機問題
47 car 2021-05-16 19:38
53 [討論] wish道路側撞實測
78 car 2021-05-16 16:09